Flight Track Log - Related Links

Times and Time Zones

All times are in EDT time to prevent confusion due to time zone crossing. See the ASQ4966 flight status page for this flight to view local times or setup timezone preferences in your user account.

Time Position Orientation Groundspeed Altitude Reporting Facility
EDT Latitude Longitude Course Direction KTS MPH feet Rate Location/Type
05:43PM 33.9786 -81.0017 42° Northeast 238 274 4,700  Level Jacksonville Center
05:44PM 34.0089 -80.9283 64° Northeast 265 305 7,500 2,672 Climbing Jacksonville Center
05:45PM 34.0494 -80.8500 58° Northeast 265 305 10,000 1,850 Climbing Jacksonville Center
05:46PM 34.1150 -80.7756 43° Northeast 279 321 11,200 1,339 Climbing Jacksonville Center
05:47PM 34.1847 -80.6675 43° Northeast  Level FlightAware Approximate
05:47PM 34.1928 -80.6908 42° Northeast 329 379 12,700  Level Jacksonville Center
05:48PM 34.2689 -80.5760 42° Northeast  Level FlightAware Approximate
05:48PM 34.2686 -80.6086 42° Northeast 360 414 14,800  Level Jacksonville Center
05:49PM 34.3483 -80.5183 43° Northeast 371 427 16,400 1,450 Climbing Jacksonville Center
05:50PM 34.4300 -80.4281 42° Northeast 381 438 17,700 1,150 Climbing Jacksonville Center
05:51PM 34.5136 -80.3375 42° Northeast 394 453 18,700 1,000 Climbing Jacksonville Center
05:53PM 34.6536 -80.1769 43° Northeast 402 463 20,500 994 Climbing Washington Center
05:54PM 34.7428 -80.0758 43° Northeast 413 475 21,500 984 Climbing Washington Center
05:55PM 34.8450 -79.9675 41° Northeast 429 494 22,500 1,091 Climbing Washington Center
05:56PM 34.9364 -79.8661 42° Northeast 435 501 23,700 1,261 Climbing Washington Center
05:57PM 35.0314 -79.7747 38° Northeast 430 495 25,000 1,059 Climbing Washington Center
05:58PM 35.1222 -79.6828 40° Northeast 425 489 25,800 744 Climbing Washington Center
05:59PM 35.2172 -79.5886 39° Northeast 425 489 26,500 645 Climbing Washington Center
06:00PM 35.3161 -79.4942 38° Northeast 436 502 27,100 661 Climbing Washington Center
06:01PM 35.4133 -79.3944 40° Northeast 441 507 27,800 661 Climbing Washington Center
06:02PM 35.5125 -79.2944 39° Northeast 447 514 28,400 550 Climbing Washington Center
06:03PM 35.6114 -79.1969 39° Northeast 447 514 28,900 298 Climbing Washington Center
06:04PM 35.7125 -79.0967 39° Northeast 453 521 29,000 49 Climbing Washington Center
06:05PM 35.8114 -78.9961 39° Northeast 453 521 29,000  Level Washington Center
06:06PM 35.9122 -78.8978 38° Northeast 458 527 29,000  Level Washington Center
06:07PM 36.0089 -78.7964 40° Northeast 458 527 29,000  Level Washington Center
06:08PM 36.1075 -78.6953 40° Northeast 458 527 29,000  Level Washington Center
06:09PM 36.2039 -78.5961 40° Northeast 458 527 29,000  Level Washington Center
06:10PM 36.3025 -78.4967 39° Northeast 458 527 29,000  Level Washington Center
06:11PM 36.3986 -78.3944 41° Northeast 458 527 29,000  Level Washington Center
06:12PM 36.4969 -78.2944 39° Northeast 458 527 29,000  Level Washington Center
06:13PM 36.5931 -78.1919 41° Northeast 458 527 29,000  Level Washington Center
06:14PM 36.6786 -78.1014 40° Northeast 453 521 29,000  Level Washington Center
06:15PM 36.7744 -77.9983 41° Northeast 453 521 29,000  Level Washington Center
06:16PM 36.8706 -77.8922 41° Northeast 453 521 29,000  Level Washington Center
06:17PM 36.9458 -77.7644 54° Northeast 448 516 29,000  Level Washington Center
06:18PM 37.0233 -77.6339 53° Northeast 459 528 29,000  Level Washington Center
06:19PM 37.1086 -77.5139 48° Northeast 459 528 29,000  Level Washington Center
06:20PM 37.2103 -77.4225 36° Northeast 442 509 29,000  Level Washington Center
06:21PM 37.3119 -77.3258 37° Northeast 447 514 29,000  Level Washington Center
06:22PM 37.4153 -77.2339 35° Northeast 452 520 29,000  Level Washington Center
06:23PM 37.5167 -77.1392 37° Northeast 452 520 29,000  Level Washington Center
06:24PM 37.6200 -77.0417 37° Northeast 452 520 29,000  Level Washington Center
06:25PM 37.7214 -76.9464 37° Northeast 452 520 29,000  Level Washington Center
06:26PM 37.8206 -76.8483 38° Northeast 452 520 29,000  Level Washington Center
06:27PM 37.9214 -76.7528 37° Northeast 452 520 29,000  Level Washington Center
06:28PM 38.0225 -76.6539 38° Northeast 452 520 29,000  Level Washington Center
06:29PM 38.1233 -76.5603 36° Northeast 452 520 29,000  Level Washington Center
06:30PM 38.2264 -76.4667 36° Northeast 452 520 29,000  Level Washington Center
06:31PM 38.3269 -76.3750 36° Northeast 457 526 29,000  Level Washington Center
06:32PM 38.4297 -76.2781 36° Northeast 457 526 29,000  Level Washington Center
06:33PM 38.5303 -76.1836 36° Northeast 457 526 29,000  Level Washington Center
06:34PM 38.6331 -76.0861 37° Northeast 457 526 29,000  Level Washington Center
06:35PM 38.7356 -75.9908 36° Northeast 457 526 29,000 -298 Level Washington Center
06:36PM 38.8378 -75.8928 37° Northeast 457 526 28,400 -984 Descending Washington Center
06:37PM 38.9486 -75.7892 36° Northeast 470 541 27,000 -706 Descending Washington Center
06:38PM 39.0614 -75.6825 36° Northeast 484 557 27,000  Level Washington Center
06:39PM 39.1717 -75.5756 37° Northeast 494 568 27,000  Level Washington Center
06:40PM 39.2883 -75.4683 35° Northeast 501 577 27,000  Level Washington Center
06:41PM 39.4069 -75.3633 34° Northeast 501 577 27,000  Level Washington Center
06:42PM 39.5256 -75.2581 34° Northeast 512 589 27,000 -908 Level Washington Center
06:43PM 39.6378 -75.1522 36° Northeast 512 589 25,200 -2,607 Descending Washington Center
06:44PM 39.7581 -75.0464 34° Northeast 482 555 21,700 -3,322 Descending Washington Center
06:45PM 39.8472 -74.9700 33° Northeast 437 503 18,500 -3,227 Descending Washington Center
06:46PM 39.9447 -74.8689 38° Northeast 425 489 15,300 -3,179 Descending Washington Center
06:47PM 40.0333 -74.7333 49° Northeast 387 445 11,400 -2,356 Descending New York TRACON
06:48PM 40.1167 -74.6333 43° Northeast 375 432 10,000 -700 Descending New York TRACON
06:49PM 40.1833 -74.5333 49° Northeast 384 442 10,000  Level New York TRACON
06:50PM 40.2500 -74.4333 49° Northeast 381 438 10,000 -100 Level New York TRACON
06:51PM 40.3333 -74.3333 42° Northeast 342 394 9,800 -1,000 Descending New York TRACON
06:52PM 40.3833 -74.2667 45° Northeast 293 337 8,000 -1,388 Descending New York TRACON
06:53PM 40.4500 -74.2000 37° Northeast 283 326 7,000 -1,190 Descending New York TRACON
06:54PM 40.5000 -74.1167 52° Northeast 274 315 5,600 -1,500 Descending New York TRACON
06:55PM 40.5667 -74.0667 30° Northeast 261 300 4,000 -800 Descending New York TRACON
06:56PM 40.6333 -74.0500 11° North 268 308 4,000  Level New York TRACON
06:57PM 40.7000 -74.0167 21° North 264 304 4,000 53 Level New York TRACON
06:58PM 40.7667 -74.0000 11° North 272 313 4,100  Climbing New York TRACON
06:59PM 40.8333 -73.9500 30° Northeast 256 295 4,000 -600 Descending New York TRACON
07:00PM 40.8833 -73.9000 37° Northeast 226 260 2,900 -1,050 Descending New York TRACON
07:01PM 40.8667 -73.8333 108° East 211 243 1,900 -950 Descending New York TRACON
07:02PM 40.8167 -73.8333 180° South 143 165 1,000 -900 Descending New York TRACON
07:04PM 40.7667 -73.8667 207° Southwest  Level FlightAware Approximate
07:11PM 40.7772 -73.8726 207° Southwest  Level Estimated
07:12PM 40.7772 -73.8726 207° Southwest  Level Estimated

Login

Don't have an account? Register now (free) for customized features, flight alerts, and more!